User: anonymous   Login
Location: Beaurecueil
(43.5122°N, 5.5450°E)
Time: 10:36:19
(UTC+00:00)
Language:

Meteor 1-21 - Orbit

View from above orbital plane
View from above orbital plane
View from above satellite
View from above satellite

Ground track
Ground track

The orbit data is extracted from the following two-line orbital elements,

1 07714U 75023A   21170.81873149 -.00000026  00000-0 -22821-4 0  9997
2 07714  81.2097 206.4774 0029637  96.3270 264.1276 14.08039962690906
Epoch (UTC): 19 June 2021 19:38:58
Eccentricity: 0.0029637
inclination: 81.2097°
perigee height: 844 km
apogee height: 887 km
right ascension of ascending node: 206.4774°
argument of perigee: 96.3270°
revolutions per day: 14.08039962
mean anomaly at epoch: 264.1276°
orbit number at epoch: 69090

The dashed part of the orbit path shows where the satellite is in the earth's shadow,  

DLR